Tracking 19281 objects as of 16-Nov-2018
HD Live streaming from Space Station
objects crossing your sky now

COSMOS 2292

Track COSMOS 2292 now!
10-day predictions
COSMOS 2292 is classified as:


NORAD ID: 23278
Int'l Code: 1994-061A
Perigee: 403.2 km
Apogee: 1,709.4 km
Inclination: 83.0 °
Period: 106.2 minutes
Semi major axis: 7427 km
RCS: 2.958 m2 (large)
Launch date: September 27, 1994
Source: Commonwealth of Independent States (former USSR) (CIS)
Launch site: PLESETSK MISSILE AND SPACE COMPLEX (PKMTR)
aabbcc
Your satellite tracking list
Your tracking list is empty




NASA's NSSDC Master Catalog

Two Line Element Set (TLE):
1 23278U 94061A   18319.95334434  .00000436  00000-0  37925-4 0  9992
2 23278  82.9795 136.0811 0879276 257.2730  92.8849 13.56300921181223
Source of the keplerian elements: AFSPC